Paauilo, HI

3:56 AM HST on January 16, 2017 (GMT -1000)
Bradshaw Army Air Field

Weather History for PHSF - August, 2014

Change the Weather History Date:

Sunday, August 10, 2014

  Actual Average Record
Temperature  
Mean Temperature 60 °F -  
Max Temperature 70 °F 71 °F 80 °F (2016)
Min Temperature 51 °F 51 °F 46 °F (1999)
Degree Days  
Heating Degree Days 4    
Growing Degree Days 10 (Base 50)    
Moisture  
Dew Point 56 °F    
Average Humidity 85    
Maximum Humidity 96    
Minimum Humidity 52    
Precipitation  
Precipitation 0.48 in - - ()
Sea Level Pressure  
Sea Level Pressure 30.12 in    
Wind  
Wind Speed 4 mph (WSW)    
Max Wind Speed 14 mph    
Max Gust Speed 28 mph    
Visibility 11 miles    
Events Rain    
Averages and records for this station are not official NWS values.
T = Trace of Precipitation, MM = Missing Value Source: NWS Daily Summary

Daily Weather History Graph

Daily Weather History Graph

Search for Another Location

Airport or City:

Trip Planner

Search our weather history database for the weather conditions in past years. The results will help you decide how hot, cold, wet, or windy it might be!

Date:

Astronomy

Aug. 10, 2014 Rise Set
Actual Time 6:01 AM HST 6:53 PM HST
Civil Twilight 5:37 AM HST 7:16 PM HST
Nautical Twilight 5:10 AM HST 7:43 PM HST
Astronomical Twilight 4:43 AM HST 8:11 PM HST
Moon 7:00 PM HST (8/10) 5:58 AM HST (8/10)
Length of Visible Light 13h 38m
Length of Day
12h 52m
Full, 100% of the Moon is Illuminated
Aug 10
Full
Aug 17
Last Quarter
Aug 25
New
Sep 2
First Quarter
Sep 8
Full

Hourly Weather History & Observations

Time (HST) Temp. Dew Point Humidity Pressure Visibility Wind Dir Wind Speed Gust Speed Precip Events Conditions
12:56 AM 53.4 °F 49.1 °F 85% 29.98 in 12.0 mi ESE 1.2 mph - N/A   Clear
1:56 AM 51.4 °F 48.9 °F 91% 30.00 in 12.0 mi North 2.3 mph - N/A   Clear
2:16 AM 55.4 °F 53.6 °F 94% 30.32 in 12.0 mi WNW 1.2 mph - N/A   Mostly Cloudy
2:21 AM 55.4 °F 53.6 °F 94% 30.32 in 12.0 mi North 3.5 mph - N/A   Mostly Cloudy
2:41 AM 55.4 °F 51.8 °F 88% 30.31 in 11.0 mi North 4.6 mph - N/A   Mostly Cloudy
2:56 AM 53.8 °F 51.6 °F 92% 29.98 in 11.0 mi North 3.5 mph - N/A   Scattered Clouds
3:56 AM 51.3 °F 48.4 °F 90% 29.99 in 12.0 mi ESE 4.6 mph - N/A   Clear
4:56 AM 51.4 °F 47.1 °F 85% 29.99 in 12.0 mi ESE 4.6 mph - N/A   Clear
5:56 AM 52.5 °F 46.8 °F 81% 30.01 in 12.0 mi ESE 4.6 mph - N/A   Clear
6:56 AM 55.0 °F 47.5 °F 76% 30.00 in 12.0 mi ESE 1.2 mph - N/A   Clear
7:56 AM 63.5 °F 51.4 °F 65% 30.00 in 12.0 mi ESE 3.5 mph - N/A   Clear
8:56 AM 66.0 °F 51.3 °F 59% 29.99 in 12.0 mi West 4.6 mph - N/A   Clear
9:56 AM 68.9 °F 50.7 °F 52% 30.00 in 12.0 mi West 6.9 mph - N/A   Clear
10:56 AM 69.6 °F 59.5 °F 70% 30.00 in 12.0 mi WSW 8.1 mph 15.0 mph N/A   Partly Cloudy
11:56 AM 68.4 °F 62.8 °F 82% 30.01 in 12.0 mi WSW 11.5 mph 19.6 mph N/A   Partly Cloudy
12:56 PM 69.8 °F 61.5 °F 75% 30.00 in 12.0 mi WSW 13.8 mph 20.7 mph N/A   Partly Cloudy
1:56 PM 70.3 °F 62.2 °F 75% 29.99 in 12.0 mi WSW 12.7 mph 27.6 mph N/A   Unknown
2:56 PM 69.4 °F 58.1 °F 67% 29.96 in 12.0 mi SE 3.5 mph - N/A   Mostly Cloudy
3:56 PM 68.5 °F 61.9 °F 79% 29.99 in 12.0 mi WSW 9.2 mph 18.4 mph N/A   Partly Cloudy
4:56 PM 68.2 °F 61.5 °F 79% 29.99 in 10.0 mi WSW 10.4 mph 17.3 mph N/A   Partly Cloudy
5:56 PM 63.7 °F 60.4 °F 89% 30.00 in 12.0 mi West 8.1 mph - N/A   Mostly Cloudy
6:36 PM 60.8 °F 59.0 °F 94% 30.35 in 8.0 mi WSW 5.8 mph - N/A   Mostly Cloudy
6:56 PM 61.3 °F 59.5 °F 94% 30.02 in 9.0 mi West 2.3 mph - N/A   Mostly Cloudy
7:06 PM 60.8 °F 59.0 °F 94% 30.35 in 10.0 mi West 2.3 mph - N/A   Overcast
7:16 PM 60.8 °F 59.0 °F 94% 30.36 in 9.0 mi West 2.3 mph - N/A   Mostly Cloudy
7:26 PM 60.8 °F 59.0 °F 94% 30.36 in 9.0 mi WSW 2.3 mph - N/A   Mostly Cloudy
7:31 PM 60.8 °F 59.0 °F 94% 30.36 in 9.0 mi WSW 1.2 mph - N/A   Scattered Clouds
7:40 PM 60.8 °F 59.0 °F 94% 30.37 in 6.0 mi Calm Calm - N/A Rain Light Rain
7:56 PM 60.4 °F 59.2 °F 96% 30.01 in 8.0 mi WSW 1.2 mph - N/A Rain Light Rain Showers
7:57 PM 60.8 °F 59.0 °F 94% 30.37 in 8.0 mi WSW 1.2 mph - N/A   Partly Cloudy
8:47 PM 60.8 °F 59.0 °F 94% 30.38 in 9.0 mi WNW 1.2 mph - N/A   Mostly Cloudy
8:57 PM 60.8 °F 59.0 °F 94% 30.38 in 9.0 mi West 1.2 mph - N/A   Scattered Clouds
9:56 PM 57.4 °F 55.4 °F 93% 30.04 in 11.0 mi ESE 2.3 mph - N/A   Clear
10:56 PM 56.5 °F 54.5 °F 93% 30.06 in 11.0 mi South 2.3 mph - N/A   Clear
11:56 PM 56.3 °F 54.1 °F 92% 30.06 in 12.0 mi Calm Calm - N/A   Clear